OPS 4682 DEB, 18783

Orbit data source: Space-Track

OPS 4682 DEB, 18783 is space debris in LEO originally from a launch on Sat, 03 Apr 1965 UTC launched from the Air Force Western Test Range (AFWTR). Debris objects in space refer to the collection of defunct objects orbiting the Earth. Examples of debris include non-operational satellites, rocket bodies, and fragments generated from explosions, collisions, or faulty payload assembly.

Loading next visibility...
Identifier
18783, 1965-027AK
Orbit
LEO
Country
Flag of USUS
Related business
Manufacturer
Unknown
Mission
Spacecraft
Bus & Motor
Unknown
Mass
Unknown
Launch date (UTC)
1965-04-03 (61 years ago)
Launch vehicle
Unknown
Launch site
Air Force Western Test Range (AFWTR)
Object type
Payload
Rocket body
Debris
Shape & HBR
Unknown shape, 0.1 m
Radar Cross Section
Small (<0.1 m²)

Expand to show TLE details & history
Last TLE update: 15 hours ago

TLE from 15 hours ago
0 OPS 4682 DEB
1 18783U 65027AK  25302.51783720  .00001071  00000-0  34928-2 0  9999
2 18783  90.2637  20.6995 0029397  99.5885 274.4914 13.00686267550494
Epoch: 2025-10-29T12:25Z
TLE epoch observation values (Epoch: 2025-10-29T12:25:41.134Z)
Latitude
13.711°
Longitude
156.12426°
Altitude
1,259.86 km
Speed
7.227 km/s
True Right ascension
01h 22m 32s
True Declination
13° 38' 14"
Sunlit
Object was in full shadow at epoch
Visualization orbit readout
Latitude
Unknown
Longitude
Unknown
Altitude
Unknown
Speed
Unknown
Apparent Right ascension
Unknown
Apparent Declination
Unknown
Sunlit
N/A
Visualization observer readout
Local Sidereal Time
22:42:43
Azimuth
Unknown
Elevation
Unknown
Doppler factor
Unknown
Orbital elements
Apogee altitude
1,278.969 km
Perigee altitude
1,234.081 km
Semi-major axis
7,634.662 km
Eccentricity
0.00294
Inclination
90.2637°
RAAN
20.6995°
Arg. of periapsis
99.5885°
True anomaly
274.15547°
Mean anomaly
274.4914°
Eccentric anomaly
274.32345°
Mean motion
3.25356 °/min
Orbital period
110.65 mins
BSTAR
0.0034928
Loading maneuver chart data...
Computing Atmospheric mass density...
Loading historical data...
Loading historical data...
Loading historical data...
Loading historical data...
Loading historical data...
Loading historical data...
Loading historical data...

Documentation

Showing up to 5 results
|